Home   Weather   Cap-Haïtien   Past weeks

Flag for Haiti Past Weather in Cap-Haïtien, Haiti — Yesterday and Last 2 Weeks

Now
75 °F

Thunderstorms. Passing clouds.


Feels Like: 74 °F
Forecast: 77 / 88 °F
Wind: 6 mph from East

Location: Santiago

Current Time: May 30, 2017 at 1:42:10 am

Latest Report: May 30, 2017 at 1:00 am


Visibility: N/A

Pressure: 30.07 "Hg

Humidity: 94%

Dew Point: 73 °F

Location of Cap-HaïtienLocation

Past Weather in Cap-Haïtien — Graph

°F

Cap-Haïtien Temperature Yesterday

Maximum temperature yesterday: 91 °F (at 2:00 pm)
Minimum temperature yesterday: 72 °F (at 6:00 am)
Average temperature yesterday: 82 °F

High & Low Weather Summary for the Past Weeks

 TemperatureHumidityPressure
High91 °F (May 15, 2:00 pm)100% (May 15, 6:00 am)30.09 "Hg (May 15, 6:00 am)
Low70 °F (May 20, 3:00 am)36% (May 26, 6:00 pm)29.89 "Hg (May 15, 4:00 pm)
Average80 °F79%29.99 "Hg
* Reported May 15 12:00 am — May 30 12:00 am, Cap-Haïtien. Weather by CustomWeather, © 2017

Note: Actual official high and low records may vary slightly from our data, if they occured in-between our weather recording intervals... More about our weather records

Advertising

Cap-Haïtien Weather History for the Previous 24 Hours

Scroll right to see more
 ConditionsComfort  
Time TempWeatherWind HumidityBarometerVisibility
12:00 am
Tue, May 30
77 °FThunderstorms. Passing clouds.7 mph83%30.09 "HgN/A
11:00 pm
Mon, May 29
79 °FThunderstorms. Passing clouds.8 mph84%30.09 "HgN/A
10:00 pm79 °FThunderstorms. Passing clouds.9 mph84%30.09 "HgN/A
9:00 pm81 °FThunderstorms. Passing clouds.9 mph79%30.07 "HgN/A
8:00 pm81 °FThunderstorms. Passing clouds.10 mph74%30.04 "HgN/A
7:00 pm84 °FScattered clouds.13 mph70%30.01 "HgN/A
6:00 pm88 °FPartly sunny.13 mph59%29.98 "HgN/A
5:00 pm88 °FPartly sunny.10 mph59%29.98 "HgN/A
4:00 pm91 °FScattered clouds.12 mph49%29.98 "HgN/A
3:00 pm91 °FScattered clouds.13 mph49%30.01 "HgN/A
2:00 pm91 °FScattered clouds.16 mph46%30.01 "HgN/A
1:00 pm90 °FScattered clouds.14 mph52%30.04 "HgN/A
12:00 pm86 °FScattered clouds.12 mph59%30.04 "HgN/A
11:00 am86 °FScattered clouds.10 mph70%30.04 "HgN/A
10:00 am84 °FScattered clouds.8 mph66%30.04 "HgN/A
9:00 am81 °FScattered clouds.12 mph74%30.04 "HgN/A
8:00 am77 °FPassing clouds.9 mph89%30.04 "HgN/A
7:00 am73 °FPassing clouds.3 mph94%30.04 "HgN/A
6:00 am72 °FPassing clouds.7 mph100%30.04 "HgN/A
5:00 am73 °FPassing clouds.7 mph94%30.01 "HgN/A
4:00 am73 °FPassing clouds.7 mph94%30.04 "HgN/A
3:00 am75 °FPassing clouds.5 mph94%30.04 "HgN/A
2:00 am77 °FPassing clouds.7 mph89%30.04 "HgN/A
1:00 am77 °FPassing clouds.7 mph89%30.07 "HgN/A
Weather by CustomWeather, © 2017

See weather overviewHow to use our weather pages